EW7157 Weather Reports


Display with metric or nautical units.
time (UTC)temp
F
wind
direction
speed
MPH
gust
MPH
rain 1hr
in
rain 24hr
in
rain mn
in
humidity
%
barometer
mb
20260508043921 51 180 0.0 0.0 0.00 0.28 0.00 65 1031.5
20260508043018 51 180 0.0 0.0 0.00 0.28 0.00 66 1031.5
20260508042020 51 180 0.0 0.0 0.00 0.28 0.00 67 1031.6
20260508041019 51 180 0.0 0.0 0.00 0.28 0.00 66 1031.6
20260508040030 51 180 0.0 0.0 0.00 0.28 0.00 66 1031.7
20260508035028 51 180 0.0 0.0 0.00 0.28 0.28 66 1031.5
20260508034928 51 180 0.0 0.0 0.00 0.28 0.28 67 1031.5
20260508033928 51 180 0.0 0.0 0.00 0.28 0.28 66 1031.2
20260508032929 51 180 0.0 0.0 0.00 0.28 0.28 65 1031.2
20260508032027 51 180 0.0 0.0 0.00 0.28 0.28 65 1031.2
20260508031928 51 180 0.0 0.0 0.00 0.28 0.28 64 1031.2
20260508025927 50 180 0.0 0.0 0.00 0.30 0.28 64 1031.2
20260508025827 50 180 0.0 0.0 0.00 0.30 0.28 65 1031.2
20260508024828 50 180 0.0 0.0 0.00 0.30 0.28 64 1031.3
20260508023829 50 180 0.0 0.0 0.00 0.30 0.28 64 1031.3
20260508023729 50 180 0.0 0.0 0.00 0.30 0.28 64 1031.4
20260508022729 50 180 0.0 0.0 0.00 0.30 0.28 62 1031.4
20260508021729 50 180 0.0 0.0 0.00 0.30 0.28 57 1031.4
20260508020729 51 180 0.0 0.0 0.00 0.32 0.28 56 1031.2
20260508015727 51 180 0.0 0.0 0.00 0.33 0.28 54 1031.1
20260508014728 51 180 0.0 0.0 0.00 0.36 0.28 53 1031.0
20260508013728 52 180 0.0 0.0 0.00 0.42 0.28 51 1031.0
20260508013629 52 180 0.0 0.0 0.00 0.42 0.28 52 1031.0
20260508011627 53 180 0.0 0.0 0.00 0.42 0.28 50 1030.9
20260508010629 53 180 0.0 0.0 0.00 0.42 0.28 51 1030.9
20260508005628 54 180 0.0 0.0 0.00 0.42 0.28 48 1030.9
20260508004628 54 180 0.0 0.0 0.00 0.42 0.28 48 1030.9
20260508003628 55 180 0.0 0.0 0.00 0.42 0.28 47 1030.7
20260508003528 55 180 0.0 0.0 0.00 0.42 0.28 47 1030.7
20260508001527 56 180 0.0 0.0 0.00 0.42 0.28 46 1030.6
20260508000527 57 180 0.0 0.0 0.00 0.42 0.28 45 1030.5
20260507234529 58 180 0.0 0.0 0.00 0.42 0.28 42 1030.4
20260507233529 59 180 0.0 0.0 0.00 0.42 0.28 42 1030.4
20260507232528 60 180 0.0 0.0 0.00 0.42 0.28 40 1030.4
20260507232431 60 180 0.0 0.0 0.00 0.42 0.28 40 1030.3
20260507231427 61 180 0.0 0.0 0.00 0.42 0.28 39 1030.2
20260507230429 62 180 0.0 0.0 0.00 0.42 0.28 38 1030.2
20260507225430 62 165 0.0 1.0 0.00 0.42 0.28 37 1030.1
20260507224428 62 180 0.0 2.0 0.00 0.42 0.28 37 1030.0
20260507224329 62 176 1.0 3.0 0.00 0.42 0.28 38 1030.1
20260507223328 63 156 0.0 1.0 0.00 0.42 0.28 35 1030.0
20260507222427 63 180 0.0 0.0 0.00 0.42 0.28 33 1030.1
20260507220429 63 171 0.0 3.0 0.00 0.42 0.28 34 1030.1
20260507215330 63 135 0.0 0.0 0.00 0.42 0.28 35 1030.1
20260507214427 64 180 0.0 2.0 0.00 0.42 0.28 35 1030.1
20260507211428 65 157 0.0 3.0 0.00 0.43 0.28 32 1030.1
20260507210429 65 236 0.0 1.0 0.00 0.43 0.28 34 1030.0
20260507205428 66 202 0.0 0.0 0.00 0.43 0.28 31 1029.9
20260507204430 68 180 0.0 1.0 0.00 0.43 0.28 30 1029.8
20260507203427 69 70 0.0 2.0 0.00 0.43 0.28 28 1029.8
20260507202429 70 140 1.0 4.0 0.00 0.43 0.28 29 1029.8
20260507201428 69 225 0.0 2.0 0.00 0.43 0.28 30 1029.8
20260507200428 69 220 0.0 1.0 0.00 0.43 0.28 30 1030.1
20260507195428 67 90 0.0 0.0 0.00 0.43 0.28 30 1030.0
20260507194427 68 76 1.0 3.0 0.00 0.43 0.28 29 1030.3
20260507193428 69 90 0.0 1.0 0.00 0.43 0.28 30 1030.5
20260507191429 69 187 0.0 1.0 0.00 0.43 0.28 30 1030.5
20260507191329 69 215 0.0 1.0 0.00 0.43 0.28 30 1030.6
20260507190327 67 183 0.0 3.0 0.00 0.43 0.28 30 1030.8
20260507185328 68 90 0.0 0.0 0.00 0.43 0.28 30 1031.0
20260507184328 69 155 0.0 3.0 0.00 0.43 0.28 31 1030.9
20260507183330 68 180 0.0 1.0 0.00 0.43 0.28 33 1031.0
20260507183228 68 180 0.0 0.0 0.00 0.43 0.28 32 1031.0
20260507182226 67 135 0.0 1.0 0.00 0.43 0.28 31 1031.1
20260507181228 66 180 0.0 1.0 0.00 0.43 0.28 33 1031.4
20260507180227 65 45 1.0 2.0 0.00 0.43 0.28 31 1031.4
20260507175228 65 62 2.0 3.0 0.00 0.43 0.28 33 1031.5
20260507171329 64 181 0.0 3.0 0.00 0.43 0.28 32 1032.3
20260507170328 64 120 1.0 4.0 0.00 0.43 0.28 34 1032.4
20260507164427 65 66 0.0 1.0 0.00 0.43 0.28 35 1032.6
20260507163429 64 50 3.0 4.0 0.00 0.44 0.28 39 1032.8
20260507162527 62 90 2.0 5.0 0.00 0.44 0.28 37 1032.8
20260507161626 62 90 0.0 3.0 0.00 0.45 0.28 38 1033.0
20260507160629 63 90 3.0 5.0 0.00 0.46 0.28 40 1033.0
20260507155627 62 90 2.0 3.0 0.00 0.48 0.28 42 1033.2
20260507154726 61 139 0.0 1.0 0.00 0.49 0.28 42 1033.2
20260507153729 61 90 2.0 3.0 0.00 0.50 0.28 40 1033.3
20260507152729 62 90 0.0 0.0 0.00 0.52 0.28 45 1033.6
20260507151729 62 90 0.0 0.0 0.00 0.54 0.28 45 1033.7
20260507150729 61 145 1.0 3.0 0.00 0.55 0.28 47 1033.7
20260507145729 60 135 0.0 0.0 0.00 0.56 0.28 49 1034.0
20260507144728 59 135 0.0 0.0 0.00 0.56 0.28 49 1034.1
20260507143729 59 90 1.0 3.0 0.00 0.56 0.28 55 1034.1
20260507141727 58 154 0.0 0.0 0.01 0.56 0.28 59 1034.4
20260507141626 58 135 1.0 4.0 0.01 0.56 0.28 60 1034.4
20260507140628 57 180 0.0 0.0 0.01 0.56 0.28 67 1034.5
20260507135629 55 90 0.0 0.0 0.01 0.56 0.28 73 1034.4
20260507134627 54 135 0.0 1.0 0.01 0.56 0.28 85 1034.6
20260507130628 50 157 0.0 1.0 0.00 0.55 0.28 94 1034.3
20260507130531 50 157 0.0 0.0 0.00 0.55 0.28 94 1034.3
20260507124528 50 135 0.0 1.0 0.00 0.55 0.28 95 1034.4
20260507123428 50 135 0.0 3.0 0.00 0.55 0.28 94 1034.4
20260507123328 50 113 0.0 0.0 0.00 0.55 0.28 94 1034.5
20260507122426 50 112 0.0 0.0 0.00 0.55 0.28 95 1034.2
20260507121430 50 112 0.0 0.0 0.00 0.55 0.28 96 1034.0
20260507120527 50 112 0.0 0.0 0.00 0.55 0.28 96 1034.1
20260507115528 50 112 0.0 0.0 0.00 0.55 0.28 96 1034.2
20260507114627 50 112 0.0 0.0 0.00 0.55 0.28 95 1034.1
20260507113627 50 112 0.0 0.0 0.00 0.55 0.28 96 1034.0
20260507112630 50 135 0.0 0.0 0.00 0.55 0.28 96 1033.9
20260507112528 50 135 0.0 0.0 0.00 0.55 0.28 95 1033.9
20260507112429 50 135 0.0 0.0 0.00 0.55 0.28 95 1033.9
20260507111527 50 135 0.0 0.0 0.00 0.55 0.28 95 1033.8
20260507105527 50 135 0.0 0.0 0.00 0.55 0.28 95 1033.4
20260507104528 49 135 0.0 0.0 0.00 0.55 0.28 95 1033.2
20260507101530 49 135 0.0 0.0 0.00 0.55 0.28 95 1032.9
20260507100628 49 135 0.0 0.0 0.00 0.55 0.28 96 1032.7
20260507095726 49 135 0.0 0.0 0.00 0.55 0.28 95 1032.6
20260507095628 49 135 0.0 0.0 0.00 0.55 0.28 96 1032.7
20260507094645 49 135 0.0 0.0 0.00 0.55 0.28 95 1032.7
20260507093730 48 135 0.0 0.0 0.00 0.55 0.28 96 1032.6
20260507091729 49 135 0.0 0.0 0.00 0.55 0.28 96 1032.4
20260507085728 49 135 0.0 0.0 0.03 0.55 0.28 96 1032.3
20260507084746 49 135 0.0 0.0 0.04 0.55 0.28 95 1032.4
20260507083828 49 135 0.0 0.0 0.06 0.55 0.28 95 1032.2
20260507082827 48 135 0.0 0.0 0.07 0.55 0.28 95 1032.4
20260507080927 49 135 0.0 0.0 0.08 0.53 0.26 94 1032.6
20260507075828 49 135 0.0 0.0 0.08 0.52 0.25 94 1032.4
20260507074828 49 135 0.0 0.0 0.07 0.51 0.24 94 1032.7
20260507073927 49 135 0.0 0.0 0.06 0.49 0.22 95 1033.0
20260507072928 50 135 0.0 0.0 0.07 0.48 0.21 95 1032.9
20260507071928 50 135 0.0 0.0 0.08 0.46 0.19 95 1033.1
20260507070928 50 135 0.0 0.0 0.09 0.45 0.18 95 1033.1
20260507070027 50 135 0.0 0.0 0.10 0.45 0.18 94 1032.9
20260507065030 50 135 0.0 0.0 0.10 0.44 0.17 95 1032.9
20260507064929 50 135 0.0 0.0 0.10 0.44 0.17 95 1032.8
20260507063928 50 90 0.0 0.0 0.09 0.43 0.16 93 1032.7
20260507062928 50 90 0.0 0.0 0.07 0.41 0.14 93 1032.7
20260507062829 50 90 0.0 0.0 0.07 0.41 0.14 93 1032.9
20260507061828 51 90 0.0 0.0 0.10 0.38 0.11 93 1033.0
20260507060829 51 90 0.0 0.0 0.09 0.36 0.09 93 1032.9
20260507055926 51 90 0.0 0.0 0.08 0.35 0.08 92 1033.0
20260507054928 52 90 0.0 0.0 0.07 0.34 0.07 93 1032.4
20260507052028 53 47 1.0 3.0 0.03 0.30 0.01 92 1032.2
20260507051928 53 102 1.0 3.0 0.01 0.28 0.01 92 1032.8
20260507051027 54 157 0.0 0.0 0.00 0.27 0.00 92 1032.4
20260507050029 54 135 0.0 0.0 0.00 0.27 0.00 92 1031.7
20260507045128 55 135 0.0 0.0 0.00 0.27 0.00 91 1031.8